Terug naar catalogus

USA 32

ActiefMilitairPO
NORAD 19460·PAYLOAD·🇺🇸 United States

Gelanceerd Sep 5, 1988 vanaf Vandenberg Space Force Base

Loading…

Volgende Passages (komende 24 uur)

TLE

VersSource: Space-Track

Epoch: Sep 13, 2026, 12:59 UTC

1 19460U 88078A   26256.54164724  .00000120  00000-0  35575-4 0  9997
2 19460  84.9825  61.6703 0003455 152.1831 207.9548 14.34462704121856

Volg USA 32 in realtime met AllMySat

Download on the App Store